User: anonymous   Login
Location: Unspecified
(0.0000°N, 0.0000°E)
Time: 09:15:09
(UTC+00:00)
Language:

SPOT 7 - Orbit

View from above orbital plane
View from above orbital plane
View from above satellite
View from above satellite

Ground track
Ground track

The orbit data is extracted from the following two-line orbital elements,

1 40053U 14034A   18018.73406486 -.00000020  00000-0  56474-5 0  9994
2 40053  98.2084  88.3559 0001180  83.0789 277.0539 14.58553007189298
Epoch (UTC): 18 January 2018 17:37:03
Eccentricity: 0.0001180
inclination: 98.2084°
perigee height: 697 km
apogee height: 698 km
right ascension of ascending node: 88.3559°
argument of perigee: 83.0789°
revolutions per day: 14.58553007
mean anomaly at epoch: 277.0539°
orbit number at epoch: 18929

The dashed part of the orbit path shows where the satellite is in the earth's shadow,  

DLR